User: anonymous   Login
Location: Unspecified
(0.0000°N, 0.0000°E)
Time: 15:33:18
(UTC+00:00)
Language:

APRIZESAT 7 - Orbit

View from above orbital plane
View from above orbital plane
View from above satellite
View from above satellite

Ground track
Ground track

The orbit data is extracted from the following two-line orbital elements,

1 39416U 13066A   18116.14648486  .00000092  00000-0  17272-4 0  9991
2 39416  97.5895 156.8305 0039966 305.2147  54.5329 14.83794657239636
Epoch (UTC): 26 April 2018 03:30:56
Eccentricity: 0.0039966
inclination: 97.5895°
perigee height: 589 km
apogee height: 645 km
right ascension of ascending node: 156.8305°
argument of perigee: 305.2147°
revolutions per day: 14.83794657
mean anomaly at epoch: 54.5329°
orbit number at epoch: 23963

The dashed part of the orbit path shows where the satellite is in the earth's shadow,  

DLR